Location: St. Louis
(38.6270°N, 90.1994°W)
Time: 08:30:22
(UTC-06:00)

SR - Pass Details

Date: 29 November 2021
Orbit: 582 x 872 km, 66.7° (Epoch: 21 January)

Event Time Altitude Azimuth Distance (km) Brightness Sun altitude
Rises 00:57:21 0° 226° (SW) 3,034 - -67.5°
Reaches altitude 10° 00:59:52 10° 235° (SW) 2,075 - -67.1°
Maximum altitude 01:04:12 38° 303° (WNW) 968 - -66.5°
Drops below altitude 10° 01:08:19 10° 12° (NNE) 1,958 - -65.9°
Sets 01:10:38 0° 21° (NNE) 2,840 - -65.5°
